Wind_Speed
41 40 40 39 39 39 39 39 38 37 36 36 35 35 36 36 36 37 38 38 37 37 36 35 35 36 35 35 35 35 35 35 34 34 33 32 32 32
39 40 40 40 40 39 39 39 38 38 38 37 36 36 36 36 36 36 36 37 36 36 36 35 35 35 35 35 35 35 35 34 34 33 32 31 31 32
38 38 38 39 39 39 38 38 38 38 38 37 37 37 36 35 35 35 36 36 35 36 35 35 35 34 35 34 34 33 33 33 32 31 31 31 31 31
37 37 38 38 39 38 38 37 37 37 37 36 37 37 36 35 35 35 35 35 35 35 35 35 34 33 34 33 32 32 32 31 30 30 29 29 30 30
37 36 37 37 37 36 36 37 37 37 37 36 36 36 36 35 35 35 35 34 34 35 35 34 33 33 33 33 33 32 31 30 30 29 28 28 28 28
37 37 37 36 36 36 36 37 37 38 37 36 35 34 36 36 36 35 34 34 34 34 34 34 33 33 33 33 32 32 31 30 29 28 27 27 27 26
36 37 37 36 36 36 36 35 36 36 36 36 35 35 34 35 35 35 34 34 34 33 33 33 33 32 32 32 32 31 30 29 28 27 28 27 26 25
34 34 35 35 35 34 34 34 35 35 35 36 36 36 35 35 35 35 35 35 34 34 33 33 33 32 31 31 31 31 30 29 28 28 28 27 26 24
33 33 33 33 33 33 33 34 34 34 34 35 35 35 35 35 35 35 35 34 33 33 33 33 33 32 32 31 31 30 28 28 27 27 27 26 25 24
34 34 34 35 35 34 35 34 34 34 34 35 35 34 34 34 34 34 33 32 32 32 32 31 31 31 31 30 29 28 27 27 26 26 25 24 24 23
34 35 35 35 35 34 34 35 35 35 35 34 35 34 34 34 34 33 32 31 31 31 31 30 30 30 30 29 28 27 26 25 24 24 24 22 21 21
34 35 36 35 35 34 34 35 36 36 35 33 33 33 34 34 34 33 32 31 31 31 30 30 30 29 28 27 26 25 24 24 23 23 23 21 20 19
34 35 36 36 36 35 34 34 35 35 35 34 33 33 33 33 33 32 32 32 31 31 30 30 28 28 26 25 25 24 24 23 22 22 21 20 19 18
35 36 37 36 36 36 35 34 34 34 34 34 33 33 33 33 33 32 32 31 30 29 29 28 27 27 27 26 24 23 23 22 21 20 19 18 17 17
36 37 37 36 36 35 35 34 34 34 34 34 34 34 33 33 32 32 31 29 28 28 27 27 26 26 26 25 24 22 21 20 19 18 17 17 16 16
36 36 36 35 35 34 34 34 33 33 33 33 33 33 32 31 30 30 29 29 28 28 28 27 26 25 25 24 23 21 20 18 17 16 16 16 15 14
35 34 34 34 33 33 33 33 32 32 31 32 32 31 30 29 29 29 28 28 28 27 27 27 26 25 24 22 21 19 18 16 15 15 15 14 13 12
33 32 32 32 32 32 32 32 31 30 29 30 29 28 28 28 28 27 27 27 27 27 26 26 24 23 21 20 18 17 15 14 14 13 13 12 11 11
32 31 31 31 31 31 31 30 30 29 28 28 28 27 27 27 27 26 26 25 26 25 25 23 22 21 20 18 16 16 15 13 12 12 11 10 9 9
31 30 30 30 30 30 31 31 30 29 28 28 27 27 26 27 26 25 25 24 24 23 22 21 20 19 17 16 15 14 14 14 12 11 10 9 9 8
30 30 30 29 29 29 29 30 30 29 28 27 27 26 25 25 25 24 23 22 21 20 19 19 18 17 16 15 14 13 13 13 13 11 10 10 9 8
30 29 29 29 29 28 28 28 28 28 28 27 26 25 25 24 23 22 21 20 19 18 18 17 17 16 15 13 12 12 12 11 11 10 10 9 9 8
29 29 29 29 28 27 27 27 27 27 27 26 25 24 23 22 21 21 20 19 18 17 17 16 16 16 15 13 12 12 12 10 10 9 9 9 9 8
Wind_Direction
264 266 267 268 269 270 272 273 275 276 276 277 279 281 284 285 287 289 292 293 293 294 296 297 295 295 295 295 295 296 297 296 296 294 292 290 290 290
263 264 266 267 268 270 272 273 274 274 276 277 279 281 283 285 287 288 290 292 293 295 296 296 296 296 296 296 296 296 296 296 295 294 293 290 291 292
262 265 266 267 268 270 271 272 273 274 275 276 278 280 283 285 286 287 289 291 293 295 296 296 296 297 298 298 299 297 295 295 294 293 292 290 291 293
262 264 266 267 268 270 271 271 272 273 274 275 276 278 280 284 285 287 289 290 292 294 295 295 295 297 298 298 299 298 295 294 294 293 292 292 292 294
262 264 266 266 268 269 270 271 271 272 273 275 276 277 279 282 284 287 289 290 292 293 294 295 295 296 298 297 298 296 295 294 293 293 293 293 293 293
261 263 266 267 268 269 270 271 271 271 271 273 276 277 278 280 283 285 287 289 292 293 293 294 295 297 297 296 296 295 294 293 292 292 294 294 294 294
262 264 265 267 268 269 270 271 271 271 270 272 274 276 278 279 282 283 285 287 290 292 293 294 296 297 296 296 295 294 294 292 290 291 293 294 294 294
262 263 264 266 268 268 269 269 270 272 273 274 275 276 278 280 281 283 285 286 287 289 290 292 294 296 296 296 296 294 292 290 289 290 293 294 294 294
263 263 263 265 268 269 270 269 271 273 274 275 276 276 278 280 281 283 284 285 286 287 289 291 293 295 295 295 295 294 292 289 288 290 292 293 293 293
263 263 263 264 267 271 270 269 271 273 275 276 276 276 277 278 279 280 282 284 285 287 289 290 292 293 295 294 294 293 292 290 287 288 292 293 293 293
263 264 264 265 267 269 269 269 271 272 274 275 276 276 276 277 279 280 281 282 284 286 288 289 291 292 294 293 292 291 289 288 286 287 291 293 295 293
264 264 264 266 268 268 269 270 271 272 272 273 275 276 276 276 277 279 281 282 283 284 286 287 288 290 291 291 289 288 288 287 286 287 291 292 294 293
266 265 266 266 266 267 269 270 271 272 273 273 274 276 277 276 277 278 281 281 282 283 285 286 286 287 289 288 288 288 288 286 285 286 290 290 291 292
268 267 267 267 266 267 270 270 271 272 272 272 273 275 276 277 277 277 279 281 281 282 283 284 285 286 287 286 286 287 286 284 284 284 287 289 289 289
269 268 267 268 267 267 269 270 270 270 271 272 273 276 276 277 277 275 276 278 280 281 283 284 284 284 284 283 283 284 284 283 281 281 284 286 286 287
270 269 267 266 267 267 268 269 270 271 272 273 274 276 276 277 276 276 274 275 277 280 281 282 283 284 283 282 281 281 282 281 280 278 280 283 283 285
271 269 267 266 266 266 266 267 269 269 271 273 274 274 274 275 274 274 274 273 275 276 279 281 282 282 282 281 278 277 277 277 278 278 276 280 281 279
270 268 266 266 265 264 264 266 268 268 269 270 272 273 272 272 272 273 274 274 274 274 277 280 280 278 278 277 274 271 270 272 276 278 275 278 276 273
268 267 265 265 265 264 264 265 266 267 267 268 270 271 271 271 271 272 273 274 274 273 274 275 275 274 273 270 267 264 263 267 270 271 271 271 273 273
266 265 266 267 268 267 264 264 265 266 266 267 268 269 270 270 270 272 273 274 273 271 271 270 269 267 265 264 260 258 258 259 262 265 265 267 270 272
266 266 267 268 269 268 266 265 264 264 265 265 266 267 268 270 269 270 270 270 269 268 267 265 263 262 259 257 255 254 256 255 255 257 257 260 262 263
266 266 266 267 269 269 267 265 263 263 264 264 264 264 265 266 266 266 266 265 265 264 262 260 258 257 255 253 251 250 247 246 248 251 257 254 249 249
267 266 266 267 268 268 266 263 262 263 263 261 261 260 260 262 263 263 261 262 261 259 258 255 253 251 250 247 243 242 241 245 250 254 254 248 244 242
Height
5700 5701 5701 5701 5701 5701 5701 5700 5700 5700 5700 5699 5698 5695 5693 5691 5688 5685 5682 5678 5674 5670 5666 5662 5659 5656 5652 5649 5646 5643 5640 5637 5633 5630 5627 5625 5622 5619
5690 5691 5691 5691 5691 5691 5691 5691 5690 5690 5690 5690 5688 5686 5684 5682 5679 5676 5673 5669 5666 5662 5658 5655 5651 5648 5644 5641 5637 5634 5631 5628 5625 5622 5619 5616 5613 5610
5680 5680 5681 5681 5681 5681 5681 5681 5680 5680 5680 5680 5678 5677 5675 5673 5670 5667 5664 5661 5657 5653 5650 5647 5643 5640 5636 5633 5629 5626 5622 5620 5617 5613 5610 5607 5605 5602
5669 5670 5671 5671 5671 5671 5671 5671 5671 5670 5670 5670 5669 5668 5666 5664 5661 5658 5655 5652 5649 5645 5642 5639 5635 5632 5628 5625 5621 5617 5614 5611 5608 5605 5602 5600 5597 5594
5659 5660 5660 5661 5661 5661 5661 5661 5660 5660 5660 5659 5659 5658 5657 5655 5652 5650 5647 5644 5640 5637 5634 5630 5627 5624 5620 5617 5613 5609 5606 5603 5600 5597 5595 5592 5589 5586
5649 5650 5650 5651 5651 5651 5651 5651 5650 5650 5650 5649 5649 5648 5647 5645 5643 5641 5638 5635 5632 5629 5626 5622 5619 5615 5612 5608 5605 5602 5598 5595 5592 5590 5587 5584 5581 5579
5638 5639 5640 5641 5641 5641 5641 5641 5641 5640 5640 5639 5639 5638 5637 5636 5634 5632 5630 5627 5624 5621 5618 5614 5611 5608 5604 5600 5596 5593 5590 5587 5585 5582 5580 5577 5574 5571
5628 5629 5630 5631 5631 5631 5631 5631 5631 5630 5630 5629 5629 5628 5627 5626 5624 5622 5620 5618 5616 5614 5610 5607 5603 5599 5596 5592 5589 5585 5582 5580 5577 5575 5572 5570 5567 5565
5619 5620 5621 5622 5622 5622 5621 5621 5620 5620 5620 5619 5619 5618 5617 5616 5615 5613 5611 5608 5606 5604 5601 5598 5595 5591 5588 5584 5581 5578 5575 5572 5570 5568 5565 5563 5561 5558
5609 5610 5611 5611 5612 5612 5612 5611 5611 5610 5610 5609 5609 5608 5607 5605 5604 5603 5601 5599 5597 5594 5592 5590 5587 5583 5579 5576 5573 5570 5567 5565 5563 5561 5558 5556 5554 5552
5599 5600 5600 5601 5601 5602 5601 5601 5601 5601 5600 5599 5598 5597 5596 5595 5594 5592 5591 5590 5588 5586 5584 5581 5579 5576 5572 5568 5566 5563 5560 5558 5557 5554 5552 5550 5548 5546
5590 5590 5590 5591 5591 5591 5591 5591 5591 5590 5590 5589 5588 5587 5586 5585 5584 5582 5581 5580 5578 5577 5575 5572 5570 5567 5565 5562 5559 5556 5554 5552 5550 5549 5547 5545 5543 5541
5579 5580 5580 5580 5580 5581 5581 5581 5580 5580 5579 5579 5578 5577 5576 5575 5574 5573 5571 5570 5569 5567 5566 5563 5561 5558 5556 5554 5552 5549 5547 5546 5544 5543 5541 5539 5538 5536
5569 5569 5569 5569 5570 5570 5570 5570 5570 5569 5569 5569 5568 5567 5567 5565 5564 5563 5562 5560 5559 5558 5556 5554 5553 5551 5548 5546 5545 5543 5541 5540 5539 5537 5536 5534 5533 5531
5558 5558 5558 5558 5559 5559 5559 5560 5559 5559 5559 5559 5559 5558 5557 5556 5554 5553 5552 5552 5550 5549 5547 5546 5544 5543 5541 5539 5538 5537 5536 5535 5533 5532 5531 5529 5528 5527
5547 5547 5547 5547 5548 5548 5549 5549 5549 5549 5549 5549 5549 5548 5546 5546 5545 5544 5544 5543 5542 5541 5539 5538 5536 5535 5534 5532 5531 5531 5530 5529 5528 5527 5526 5525 5524 5523
5536 5536 5537 5537 5538 5538 5538 5539 5539 5539 5539 5539 5539 5538 5537 5537 5536 5536 5535 5535 5534 5533 5532 5530 5529 5528 5527 5526 5525 5525 5525 5524 5523 5522 5522 5521 5520 5519
5526 5526 5527 5527 5527 5528 5528 5529 5529 5529 5529 5529 5529 5529 5529 5528 5528 5527 5527 5527 5527 5526 5525 5523 5522 5522 5521 5521 5520 5520 5520 5520 5519 5518 5518 5517 5517 5516
5516 5516 5517 5517 5517 5518 5518 5519 5519 5519 5520 5520 5520 5520 5520 5520 5520 5520 5520 5519 5519 5519 5518 5516 5516 5516 5516 5516 5515 5515 5515 5515 5515 5515 5514 5514 5513 5513
5506 5506 5507 5507 5507 5508 5508 5509 5509 5510 5510 5511 5511 5512 5512 5512 5512 5512 5512 5512 5512 5512 5511 5510 5510 5510 5510 5511 5510 5510 5510 5510 5511 5511 5511 5510 5510 5509
5496 5497 5497 5498 5498 5498 5498 5499 5499 5500 5501 5502 5502 5503 5504 5504 5505 5505 5505 5505 5505 5505 5505 5505 5505 5505 5505 5505 5506 5506 5506 5506 5506 5507 5507 5508 5508 5507
5487 5487 5488 5488 5488 5488 5488 5489 5490 5491 5491 5492 5493 5495 5496 5496 5497 5498 5498 5498 5499 5499 5499 5500 5500 5500 5501 5501 5502 5502 5502 5503 5503 5503 5504 5505 5505 5505
5477 5478 5478 5478 5479 5479 5479 5480 5481 5481 5482 5483 5485 5486 5488 5489 5490 5491 5491 5492 5493 5493 5494 5494 5495 5496 5496 5497 5498 5498 5499 5499 5500 5500 5501 5501 5502 5502